weather.gov     
National Weather Service

Regional Weather Roundup
NWS Homepage
This page is being discontinued on March 12, 2014.
The same data is available at this site. Please update your bookmarks.
Thank you, and we apologize for the inconvenience.
Please send an email to SR-SRH.Webmaster@noaa.gov with any concerns.


Current Version
Previous Version:    01  02  03  04  05  06  07  08  09  10  11  12  13  14  15  16  17  18  19  20  21  22  23  24  25  26  27  28  29  30  
   31  32  33  34  35  36  37  38  39  40  41  42  43  44  45  46  47  48  49  50  51  52  53  54  
[Printable]
094
ASUS41 KCTP 230110
RWRCTP

REGIONAL WEATHER ROUNDUP
NATIONAL WEATHER SERVICE STATE COLLEGE PA
800 PM EST SAT NOV 22 2014

Note: "fair" indicates few or no clouds below 12,000 feet with no
significant weather and/or obstructions to visibility.

* = STATION THAT DOES NOT REPORT PRECIPITATION /E.G. RAIN...SNOW...ETC/
    THUNDER OR FOG.

PAZ002>004-007>009-013>016-020>023-029>032-230200-
WESTERN PENNSYLVANIA

CITY           SKY/WX    TMP DP  RH WIND       PRES   REMARKS
ERIE           CLOUDY    45  35  68 S20G26    30.02F
MEADVILLE      CLOUDY    40  33  76 VRB5      30.05F
FRANKLIN*      CLOUDY    39  30  70 S12       30.08F
NEW CASTLE     LGT RAIN  41  33  73 VRB3      30.10F
BEAVER COUNTY  NOT AVBL
BUTLER*        CLOUDY    43  30  61 S9        30.12F
PITTSBURGH INT CLOUDY    46  30  53 S6        30.11F
PITTSBURGH     CLOUDY    47  24  40 S8        30.11F
INDIANA*       CLOUDY    45  32  61 SW6       30.16F
LATROBE        PTCLDY    45  30  57 CALM      30.15F
WASHINGTON CO* MOCLDY    46  28  49 S5        30.14F
$$

PAZ004>006-010>012-017>019-024>028-033>037-041-042-045-046-049>053-230200-
CENTRAL PENNSYLVANIA

CITY           SKY/WX    TMP DP  RH WIND       PRES   REMARKS
BRADFORD       LGT RAIN  38  32  79 SW8       30.06F
DUBOIS         CLOUDY    42  33  70 SW15      30.09F
CLEARFIELD     CLOUDY    33  32  96 W3        30.13F
JOHNSTOWN      CLOUDY    46  29  51 SW10      30.13F
ALTOONA        CLOUDY    41  29  62 S5        30.16F
STATE COLLEGE  CLOUDY    34  27  75 CALM      30.15F
WILLIAMSPORT   CLOUDY    33  28  81 CALM      30.19F
SELINSGROVE    CLOUDY    40  18  41 S5        30.22F
FT INDIANTOWN  MOCLDY    38  17  42 CALM      30.24F
CAPITAL CITY   PTCLDY    35  19  52 S3        30.25F
HARRISBURG     MOCLDY    32  21  64 E3        30.24F
YORK           PTCLDY    31  20  63 CALM      30.24F
$$

PAZ038>040-043-044-047-048-054-055-060>062-067>071-230200-
EASTERN PENNSYLVANIA

CITY           SKY/WX    TMP DP  RH WIND       PRES   REMARKS
SCRANTON       CLOUDY    38  17  42 SW6       30.17F
MOUNT POCONO   CLOUDY    36  15  42 W12G22    30.15S
ALLENTOWN      CLOUDY    41  18  39 SW8       30.25S
QUAKERTOWN*    CLOUDY    39  19  45 SW6       30.26F
READING        CLOUDY    41  21  44 SW5       30.25F
LANCASTER      MOCLDY    35  22  58 CALM      30.26F
COATESVILLE    CLOUDY    39  23  52 SW5       30.26F
POTTSTOWN      CLOUDY    40  20  44 SW3       30.28S
BLUE BELL      CLOUDY    43  23  45 SW5       30.27S
DOYLESTOWN     CLOUDY    40  19  43 SW7       30.25F
WILLOW GROVE   NOT AVBL
NORTH PHILA    CLOUDY    45  19  35 SW10      30.29F
PHILADELPHIA   CLOUDY    44  22  41 SW12      30.30F
$$




U.S. Dept. of Commerce
NOAA National Weather Service
1325 East West Highway
Silver Spring, MD 20910
E-mail: w-nws.webmaster@noaa.gov
Page last modified: May 16, 2007
NATIONAL WEATHER SERVICE: for Safety, for Work, for Fun - FOR LIFE